DIAMANT R/B, 2682

Orbit data source: Space-Track

DIAMANT R/B, 2682 is space debris in LEO originally from a launch on Wed, 15 Feb 1967 UTC launched from the Hamma Guira Space Track Range (HGSTR). Debris objects in space refer to the collection of defunct objects orbiting the Earth. Examples of debris include non-operational satellites, rocket bodies, and fragments generated from explosions, collisions, or faulty payload assembly.

Loading next visibility...
Identifier
2682, 1967-014B
Orbit
LEO
Country
Flag of FRFR
Related business
Manufacturer
Sud
Mission
Spacecraft
Bus & Motor
RUBIS, Unknown motor
Mass
65 kg wet, 65 kg dry
Launch date (UTC)
1967-02-15 (59 years ago)
Launch vehicle
Unknown
Launch site
Hamma Guira Space Track Range (HGSTR)
Object type
Payload
Rocket body
Debris
Shape & HBR
Unknown
Radar Cross Section
Large (>1 m²)

Expand to show TLE details & history
Last TLE update: 11 hours ago

TLE from 11 hours ago
0 DIAMANT R/B
1 02682U 67014B   26111.81925625  .00000283  00000-0  14879-3 0  9990
2 02682  39.4586 159.7165 0746583 345.2630  12.7373 13.32564040856364
Epoch: 2026-04-21T19:39Z
TLE epoch observation values (Epoch: 2026-04-21T19:39:43.740Z)
Latitude
-0.00006°
Longitude
14.89462°
Altitude
591.646 km
Speed
7.835 km/s
True Right ascension
10h 38m 51s
True Declination
0° 00' 00"
Sunlit
Object was in full shadow at epoch
Visualization orbit readout
Latitude
Unknown
Longitude
Unknown
Altitude
Unknown
Speed
Unknown
Apparent Right ascension
Unknown
Apparent Declination
Unknown
Sunlit
N/A
Visualization observer readout
Local Sidereal Time
13:14:21
Azimuth
Unknown
Elevation
Unknown
Doppler factor
Unknown
Orbital elements
Apogee altitude
1,700.692 km
Perigee altitude
578.192 km
Semi-major axis
7,517.579 km
Eccentricity
0.07466
Inclination
39.4586°
RAAN
159.7165°
Arg. of periapsis
345.263°
True anomaly
14.81115°
Mean anomaly
12.7373°
Eccentric anomaly
13.75434°
Mean motion
3.32986 °/min
Orbital period
108.11 mins
BSTAR
0.00014879
Loading maneuver chart data...
Computing Atmospheric mass density...
Loading historical data...
Loading historical data...
Loading historical data...
Loading historical data...
Loading historical data...
Loading historical data...
Loading historical data...

Documentation

Showing up to 5 results
|